This is the latest recevied weather packets stored in our database for station/object KI7JYE. If no packets are shown the sender has not sent any weather packets the latest 10 day(s).
| Time | Temp. | Humidity | Pressure | Rain* | Wind** | Luminosity | Snow |
|---|---|---|---|---|---|---|---|
| 1777343612 | 13.33° C | 69% | 1017.9 hPa | 0 mm | - | 6 W/m² | - |
| 1777343310 | 13.33° C | 69% | 1017.7 hPa | 0 mm | - | 7 W/m² | - |
| 1777343007 | 13.89° C | 69% | 1017.9 hPa | 0 mm | - | 7 W/m² | - |
| 1777342704 | 13.89° C | 69% | 1017.7 hPa | 0 mm | - | 10 W/m² | - |
| 1777342401 | 13.89° C | 69% | 1017.6 hPa | 0 mm | - | 14 W/m² | - |
| 1777342098 | 13.89° C | 68% | 1017.7 hPa | 0 mm | - | 19 W/m² | - |
| 1777341794 | 13.89° C | 68% | 1017.7 hPa | 0 mm | - | 27 W/m² | - |
| 1777341490 | 14.44° C | 70% | 1017.7 hPa | 0 mm | - | 30 W/m² | - |
| 1777341187 | 14.44° C | 70% | 1017.6 hPa | 0 mm | - | 32 W/m² | - |
| 1777340883 | 14.44° C | 69% | 1017.7 hPa | 0 mm | - | 43 W/m² | - |
| 1777340582 | 15° C | 68% | 1017.5 hPa | 0 mm | - | 56 W/m² | - |
| 1777340279 | 14.44° C | 68% | 1017.7 hPa | 0 mm | - | 69 W/m² | - |
| 1777339975 | 14.44° C | 68% | 1017.9 hPa | 0 mm | - | 71 W/m² | - |
| 1777339673 | 14.44° C | 67% | 1017.6 hPa | 0 mm | - | 78 W/m² | - |
| 1777339370 | 14.44° C | 68% | 1017.6 hPa | 0 mm | - | 79 W/m² | - |
| 1777339069 | 14.44° C | 69% | 1017.5 hPa | 0 mm | - | 86 W/m² | - |
| 1777338766 | 14.44° C | 67% | 1017.6 hPa | 0 mm | - | 86 W/m² | - |
| 1777338463 | 14.44° C | 67% | 1017.9 hPa | 0 mm | - | 84 W/m² | - |
| 1777338159 | 14.44° C | 67% | 1017.6 hPa | 0 mm | - | 85 W/m² | - |
| 1777337855 | 14.44° C | 67% | 1017.6 hPa | 0 mm | - | 86 W/m² | - |
| 1777337553 | 14.44° C | 69% | 1017.9 hPa | 0 mm | - | 76 W/m² | - |
| 1777337250 | 14.44° C | 68% | 1017.6 hPa | 0 mm | - | 68 W/m² | - |
| 1777336947 | 14.44° C | 68% | 1017.7 hPa | 0 mm | - | 55 W/m² | - |
| 1777336646 | 14.44° C | 66% | 1017.7 hPa | 0 mm | - | 62 W/m² | - |
| 1777336344 | 15° C | 67% | 1017.7 hPa | 0 mm | - | 81 W/m² | - |
* Rain latest hour (hover to see other rain measurements)
** Current wind speed in m/s (hover to see current wind gust speed)